Location: Briaroaks Volunteer Fire Station
(32.5042°N, 97.3056°W)
Time: 05:03:35
(UTC+00:00)

Daily predictions for brighter satellites

Satellite Brightness Start Highest point End
(mag) Time Altitude Azimuth Time Altitude Azimuth Time Altitude Azimuth
SJ-6B 2.9 02:01:21 10° S 02:04:56 70° W 02:08:33 10° NNW
Cosmos 2251 Rocket 3.9 01:59:54 10° SSW 02:05:08 74° WNW 02:10:28 10° NNE
Okean O Rocket 2.6 02:01:45 10° SE 02:05:33 29° ENE 02:09:21 10° NNE
Cosmos 407 Rocket 4.1 02:01:08 10° SSW 02:06:18 62° WNW 02:11:26 10° N
Cosmos 2195 Rocket 4.5 02:00:41 10° S 02:06:46 85° E 02:12:57 10° N
Centaur AC-119 4.1 02:03:37 10° SW 02:07:15 33° SSE 02:16:31 10° E
Lacrosse 5 rocket 2.9 02:04:06 10° WNW 02:07:47 30° WSW 02:11:20 10° S
Meteor 1-18 Rocket 4.5 02:02:20 10° S 02:08:13 83° W 02:14:04 10° N
USA 186 2.0 02:05:15 10° SSE 02:08:29 54° ENE 02:11:45 10° N
Cosmos 1666 Rocket 3.6 02:07:33 10° N 02:11:52 67° E 02:16:12 10° SSE
Cosmos 1842 3.8 02:11:37 10° SSE 02:14:55 34° E 02:18:15 10° NNE
CZ-4B R/B 3.2 02:11:13 10° SSE 02:16:27 69° ENE 02:21:44 10° N
Cosmos 1092 Rocket 4.1 02:13:14 10° S 02:19:33 89° E 02:25:56 10° N
Tiangong -0.2 02:18:48 10° NW 02:21:28 24° NNE 02:24:07 10° ENE
CZ-4 R/B 2.1 02:18:38 10° S 02:22:29 54° W 02:26:25 10° NNW
Cosmos 1954 Rocket 4.0 02:18:21 10° S 02:23:35 68° ESE 02:28:50 10° NNE
SPOT 5 4.4 02:22:16 10° ESE 02:24:57 16° ENE 02:27:39 10° NNE
Cosmos 1066 Rocket 4.4 02:21:18 10° S 02:27:09 83° W 02:32:58 10° N
Cosmos 676 Rocket 4.0 02:30:05 10° S 02:35:22 71° ESE 02:40:39 10° NNE
Resurs 01 Rocket 1.6 02:31:55 10° SSE 02:36:19 85° WSW 02:40:44 10° NNW
Cosmos 1707 2.7 02:33:13 10° S 02:36:43 51° E 02:40:13 10° NNE
ASTRO E2 2.8 02:36:38 10° SW 02:39:55 40° SSE 02:42:09 17° ESE
Cosmos 2082 Rocket 4.0 02:37:12 10° SW 02:42:23 35° WNW 02:47:36 10° N
PSLV R/B 3.4 02:40:20 13° SSE 02:43:25 78° ENE 02:46:56 10° N
SL-16 R/B 3.7 02:41:53 10° N 02:46:07 21° ENE 02:49:14 14° E
Cosmos 2369 3.7 02:45:32 10° NNW 02:51:17 83° ENE 02:55:49 17° SSE
ERS-1 Rocket 4.3 02:49:41 17° ESE 02:52:03 23° ENE 02:55:56 10° NNE
Cosmos 1674 3.5 02:49:19 10° SSW 02:52:37 45° W 02:55:58 10° N
Atlas Centaur 2 3.0 02:50:06 10° W 02:58:01 77° S 03:05:10 15° E
Terra 3.3 02:56:42 17° E 02:58:23 21° ENE 03:01:51 10° NNE
CZ-4C R/B 3.3 02:54:26 10° NNE 02:58:34 75° ESE 03:02:32 10° S
MOS 1-B Rocket 4.2 02:52:16 10° S 02:58:40 70° WSW 03:04:24 10° NNW
Cosmos 1763 Rocket 3.4 02:56:11 10° NNW 03:01:25 87° ENE 03:04:58 20° SSE
CSL-04 Rocket 4.4 03:02:07 10° S 03:07:10 48° W 03:12:18 10° NNW
USA 234 3.4 03:02:43 10° NE 03:09:15 76° NW 03:15:44 10° SW
FALCON 9 R/B 4.1 03:08:38 10° WSW 03:12:36 23° SSW 03:16:38 17° SSE
Cosmos 1400 Rocket 2.6 03:15:07 33° SSE 03:16:42 66° E 03:20:31 10° NNE
Atlas 2A Centaur Rocket 3.1 03:15:11 10° SW 03:15:54 14° SW 03:15:54 14° SW
IRS-1A Rocket 4.4 03:14:34 28° SE 03:17:16 54° ENE 03:22:38 10° N
ARGOS Delta rocket 3.6 03:15:40 32° SSE 03:17:40 68° ENE 03:22:03 10° N
Cosmos 1441 Rocket 2.9 03:16:51 10° N 03:20:28 72° E 03:21:16 50° SSE
ATLAS CENTAUR R/B 1.3 03:18:49 10° SW 03:22:13 62° WNW 03:25:42 10° NNE
Cosmos 1356 Rocket 3.9 03:22:33 38° ESE 03:22:48 38° E 03:26:42 10° NNE
Okean-O 2.9 03:20:32 24° S 03:23:04 64° W 03:27:26 10° NNW
Cosmos 1908 2.9 03:21:30 10° N 03:25:06 88° W 03:25:58 50° S
Cosmos 1980 Rocket 3.6 03:21:08 10° NW 03:26:08 33° WSW 03:30:42 12° SSW
Cosmos 2322 Rocket 3.3 03:23:33 10° N 03:28:28 29° ENE 03:30:11 25° E
SL-08 ROCKET BODY 4.3 03:25:30 20° S 03:29:56 81° E 03:36:02 10° N
Ariane Rocket 3.7 03:29:26 33° ESE 03:30:41 38° ENE 03:35:22 10° N
Meteor 2-10 Rocket 4.1 03:25:52 10° N 03:30:59 40° ENE 03:32:12 35° ESE
Meteor 1-22 Rocket 4.4 03:26:04 10° N 03:31:45 60° E 03:33:59 37° SE
USA 245 3.4 03:32:06 47° ENE 03:32:06 47° ENE 03:35:51 10° N
Cosmos 468 Rocket 4.1 03:29:06 10° NNW 03:34:16 69° WSW 03:36:33 33° S
Cosmos 2228 Rocket 3.1 03:39:24 54° SE 03:40:12 66° E 03:44:45 10° NNE
Cosmos 2278 3.6 03:35:57 10° NNW 03:41:41 86° ENE 03:43:39 43° SSE
Okean O Rocket 3.9 03:38:42 10° SW 03:41:47 19° W 03:44:52 10° NW
Cosmos 1470 4.3 03:39:15 10° NNW 03:42:29 29° W 03:44:06 21° SW
Cosmos 1241 Rocket 4.3 03:40:31 22° S 03:44:33 66° ESE 03:50:41 10° NNE
BlueWalker 3 4.4 03:48:25 12° NE 03:48:25 12° NE 03:48:43 10° NE
Cosmos 1850 Rocket 4.2 03:40:35 13° SSW 03:45:14 68° WNW 03:50:26 10° N
Cosmos 1869 Rocket 3.6 03:41:09 10° N 03:45:36 75° W 03:46:42 49° SSW
Meteor 1-21 4.2 03:45:53 43° SSE 03:47:40 65° E 03:53:25 10° NNE
MOS 1 Rocket 3.7 03:47:05 48° SE 03:48:19 61° ENE 03:53:35 10° N
Cosmos 540 Rocket 4.3 03:43:50 10° NNW 03:48:40 43° WSW 03:50:55 27° SSW
ATLAS 2AS CENTAUR R/B 3.8 03:45:29 10° N 03:51:22 31° NE 03:53:49 24° E
Cosmos 2219 Rocket 3.9 03:48:43 10° NNE 03:52:31 18° ENE 03:53:40 17° ENE
Cosmos 968 Rocket 3.5 03:55:15 35° SSW 03:57:28 78° WNW 04:02:39 10° NNE
S3M 4.0 03:51:34 10° N 03:57:55 78° W 04:00:27 38° S
Tiangong -0.4 03:55:18 10° WNW 03:57:06 30° WNW 03:57:06 30° WNW
SeaSat 1 2.4 03:57:51 61° ESE 03:58:32 71° ENE 04:03:26 10° NNW
Cosmos 2237 4.2 03:53:08 10° NNW 03:58:52 76° WSW 04:00:22 50° S
SL-14 R/B 3.6 03:59:59 56° W 04:00:06 57° W 04:03:50 10° N
Spot 1 4.2 03:56:24 10° NNE 04:01:04 68° ESE 04:01:09 68° ESE
SPOT 3 Rocket 3.4 04:00:42 63° SE 04:01:23 73° ENE 04:06:32 10° N
SPOT 5 4.0 04:01:22 27° SW 04:02:41 32° W 04:06:33 10° NW
Cosmos 1655 Rocket 4.3 04:02:48 28° SSW 04:06:19 68° W 04:12:42 10° N
Landsat 5 3.8 04:05:38 10° NNE 04:08:59 58° NNE 04:08:59 58° NNE
Okean 3 3.8 04:10:42 59° NNE 04:10:42 59° NNE 04:14:07 10° N
Cosmos 1862 Rocket 3.6 04:10:49 74° W 04:10:50 74° W 04:15:15 10° N
Cosmos 1346 Rocket 3.6 04:08:19 10° N 04:11:07 45° NNE 04:11:07 45° NNE
Cosmos 2360 Rocket 2.2 04:12:32 10° NNW 04:18:09 61° ENE 04:18:30 60° E
Cosmos 1244 Rocket 4.4 04:21:10 65° SE 04:21:51 71° E 04:28:07 10° N
Nadezhda 2 Rocket 4.4 04:23:37 64° SE 04:24:22 71° E 04:30:46 10° N
COSMOS 2455 4.1 04:27:48 27° ENE 04:27:48 27° ENE 04:31:06 10° NE
RESURS DK-1 3.2 04:21:58 10° NNW 04:25:03 46° NW 04:25:03 46° NW
SJ 16-02 2.1 04:27:07 46° WNW 04:27:15 46° WNW 04:31:25 10° N
SL-16 R/B 2.8 04:25:00 10° NW 04:30:21 45° WSW 04:31:06 42° SW
ERS-1 Rocket 4.2 04:29:37 30° WSW 04:30:33 32° W 04:35:02 10° NW
Cosmos 2333 Rocket 2.1 04:29:21 10° NNW 04:35:08 79° ENE 04:35:10 79° ENE
Terra 3.1 04:35:24 31° WSW 04:35:43 31° W 04:39:54 10° NW
CZ-3 Stage 3 4.3 03:46:17 10° W 04:37:50 83° S 04:43:32 35° ESE
Atlas Centaur 2 3.1 04:39:20 10° W 04:47:22 55° SSW 04:47:22 55° SSW
SL-08 R/B 4.3 04:48:34 86° SW 04:48:41 87° W 04:54:48 10° N
ARIANE 5 R/B 4.3 04:53:07 26° NNE 04:53:07 26° NNE 04:55:24 10° N
Okean 1-7 4.4 04:56:18 37° NW 04:56:18 37° NW 04:59:22 10° N
CZ-4C R/B 3.7 04:58:36 20° NE 04:58:36 20° NE 05:00:17 10° NE
Meteor 1-16 Rocket 4.4 04:51:53 10° NNW 04:57:40 69° W 04:57:40 69° W
Cosmos 2333 4.4 04:57:54 10° NNW 05:03:03 68° NW 05:03:03 68° NW
Cosmos 2297 Rocket 3.5 05:14:18 30° NE 05:14:18 30° NE 05:17:18 10° NE
Cosmos 2322 Rocket 3.5 05:07:27 10° NW 05:11:59 31° W 05:11:59 31° W
Cosmos 1745 Rocket 4.3 05:33:30 62° WNW 05:33:30 62° WNW 05:39:28 10° N
Cosmos 2219 Rocket 3.1 05:31:14 10° NNW 05:35:22 43° WNW 05:35:22 43° WNW
COSMOS 2428 3.4 05:34:26 10° NNW 05:38:48 51° N 05:38:48 51° N
USA 281 3.2 05:41:51 77° NNW 05:41:51 77° NNW 05:47:53 10° NNW
ATLAS 2AS CENTAUR R/B 3.4 05:36:05 10° NW 05:41:14 39° W 05:41:14 39° W
Nadezhda 1 Rocket 4.4 05:43:41 10° NNW 05:48:56 54° WNW 05:48:56 54° WNW
SL-12 R/B(2) 4.2 06:07:20 65° E 06:07:20 65° E 06:15:29 10° NE
COSMOS 2455 4.2 06:10:52 30° WNW 06:11:34 30° WNW 06:16:50 10° N
SL-16 R/B 4.2 06:27:14 10° NNE 06:31:15 19° ENE 06:32:00 19° ENE
CENTAUR R/B 3.1 06:33:07 49° NNE 06:33:07 49° NNE 06:37:49 10° NNE
Cosmos 2227 Rocket 3.1 06:37:22 45° N 06:37:22 45° N 06:41:26 10° NNE
Cosmos 2237 Rocket 3.1 06:32:20 10° NNW 06:36:08 44° N 06:36:08 44° N
CZ-4C R/B 4.4 06:43:37 13° NW 06:44:33 13° NW 06:47:00 10° NNW
Cosmos 2184 Rocket 4.4 06:49:15 59° NNW 06:49:15 59° NNW 06:54:28 10° N
Cosmos 2297 Rocket 4.1 06:56:04 20° WNW 06:56:09 20° WNW 07:00:17 10° NNW
Cosmos 2219 4.0 07:01:34 47° N 07:01:34 47° N 07:05:34 10° NNE
Cosmos 2154 Rocket 4.4 07:06:21 55° NNW 07:06:21 55° NNW 07:11:27 10° N
H-2A R/B 4.5 07:01:41 10° N 07:03:04 18° NNW 07:03:04 18° NNW
NOSS 3-2 (A) 4.1 07:21:44 40° NNW 07:21:44 40° NNW 07:26:06 10° NNE
SL-8 Rocket 4.5 07:21:49 52° ENE 07:21:49 52° ENE 07:27:12 10° NNE
Resurs 1-4 Rocket 4.1 07:19:07 10° NE 07:22:10 19° E 07:22:10 19° E
NOSS 3-2 (C) 3.9 07:28:54 45° NE 07:28:54 45° NE 07:32:52 10° NNE
Cosmos 2263 Rocket 2.9 07:28:45 48° NNW 07:28:45 48° NNW 07:33:00 10° NNE
Cosmos 1844 Rocket 3.9 07:47:26 31° E 07:47:26 31° E 07:51:46 10° NE
Cosmos 2341 Rocket 4.1 07:56:13 66° NW 07:56:13 66° NW 08:01:54 10° N
COBE Rocket 4.4 07:54:40 10° N 07:58:52 60° N 07:58:52 60° N
Cosmos 864 Rocket 4.4 08:02:24 77° WNW 08:02:24 77° WNW 08:08:34 10° N
IDEFIX/ARIANE 42P 2.7 08:04:01 10° NNE 08:08:40 69° NE 08:08:40 69° NE
SL-16 R/B 3.1 08:10:08 10° NNW 08:13:48 37° WNW 08:13:48 37° WNW
MOZ.5/SAFIR/RUBIN 5/SL-8 4.4 08:17:56 49° NNW 08:17:56 49° NNW 08:21:19 10° NNW
CZ-2C R/B 3.4 08:13:54 10° NNE 08:19:01 54° E 08:19:01 54° E
CZ-2C R/B 3.3 08:17:59 42° ESE 08:19:05 49° ENE 08:24:12 10° N
Cosmos 1821 Rocket 3.7 08:25:03 77° S 08:25:33 90° W 08:31:42 10° N
CZ-2D R/B 2.0 08:21:36 10° NNE 08:26:55 81° E 08:26:55 81° E
MSX 3.6 08:22:10 10° N 08:27:54 81° WNW 08:28:10 79° WSW
Cosmos 1943 3.6 08:23:46 10° NNW 08:29:19 58° ENE 08:31:17 38° SE
Cosmos 1867 3.6 08:30:15 67° WNW 08:30:15 67° WNW 08:35:40 10° NNE
Cosmos 2218 Rocket 4.4 08:30:26 45° W 08:30:27 45° W 08:36:22 10° N
Cosmos 2228 3.9 08:27:00 10° N 08:30:02 45° NNW 08:30:02 45° NNW
USA 238 DEB 3.5 08:32:42 60° W 08:33:27 65° WNW 08:39:54 10° NNE
USA 238 3.4 08:32:45 60° W 08:33:29 66° WNW 08:39:56 10° NNE
FENGYUN 3A 3.9 08:28:19 10° NNE 08:33:37 58° E 08:34:20 54° SE
AQUA 4.2 08:36:00 10° NNE 08:40:37 52° E 08:40:58 51° ESE
ADEOS II 2.0 08:41:27 10° NNE 08:46:42 82° ESE 08:47:23 68° S
NPP 4.1 08:41:54 10° N 08:47:01 45° WNW 08:47:11 45° WNW
ALOS 3.1 08:42:41 10° NNE 08:47:03 42° E 08:47:51 38° SE
ATLAS 5 CENTAUR R/B 3.1 08:56:45 17° ESE 08:56:45 17° ESE 08:58:37 10° ENE
Cosmos 1934 Rocket 4.1 08:59:41 36° S 09:02:26 74° E 09:08:47 10° N
Resurs 1-4 Rocket 2.6 08:57:46 10° N 09:02:41 41° WNW 09:03:13 40° W
Cosmos 1844 3.9 09:01:41 50° WSW 09:02:46 59° WNW 09:08:29 10° NNE
SL-16 R/B 3.0 08:59:19 11° SSE 09:05:11 61° ENE 09:11:19 10° N
Cosmos 921 Rocket 3.3 09:01:33 10° N 09:05:42 61° ENE 09:06:56 41° SE
NOSS 2-2 (C) 4.1 09:07:47 35° ESE 09:07:47 35° ESE 09:10:33 10° NE
Cosmos 2123 Rocket 4.4 09:03:03 10° N 09:09:08 60° E 09:14:25 14° SSE
Meteor 1-28 Rocket 3.3 09:10:16 60° ESE 09:10:32 63° ENE 09:14:02 10° N
Cosmos 1606 Rocket 3.4 09:06:08 10° N 09:10:34 89° WNW 09:11:20 61° S
Cosmos 2058 3.5 09:10:10 41° SE 09:11:06 51° E 09:15:03 10° NNE
USA 267 3.4 09:16:59 10° NE 09:23:26 65° NW 09:26:45 30° WSW
NOSS 2-3 (E) 4.2 09:22:56 31° SE 09:23:43 35° ESE 09:27:05 10° NE
Cosmos 1726 Rocket 3.4 09:21:12 10° N 09:25:37 82° W 09:27:08 41° S
Cosmos 1238 Rocket 4.2 09:25:34 10° NNE 09:28:16 26° E 09:30:15 14° SE
NOSS 2-3 (C) 4.0 09:28:26 34° SSE 09:29:20 41° ESE 09:32:48 10° NE
Cosmos 1844 Rocket 3.8 09:29:05 24° W 09:30:41 28° WNW 09:35:25 10° N
METEOR-M 4.5 09:27:26 10° NNE 09:32:43 61° ESE 09:36:24 20° S
Delta 2 Rocket 3.3 09:33:16 26° WNW 09:35:25 80° NNE 09:39:44 10° ESE
SAR-Lupe-1 4.1 09:35:24 10° N 09:38:55 59° WNW 09:39:33 49° WSW
SEDSat Delta rocket 2.6 09:39:27 38° W 09:40:54 78° S 09:44:55 10° E
Alouette 2 Rocket 4.2 09:41:56 32° SW 09:43:29 42° W 09:47:18 10° N
ASTEX 1 3.9 09:43:47 32° SW 09:45:05 38° W 09:49:36 10° NNW
BREEZE-M DEB (TANK) 3.0 09:45:31 10° WNW 09:48:25 52° SW 09:57:30 10° SSE
Lacrosse 5 3.7 09:50:52 10° S 09:54:49 23° ESE 09:58:46 10° ENE
Cosmos 1544 2.8 09:55:25 38° WNW 09:55:25 38° WNW 09:57:45 10° N
CZ-2C R/B 2.5 09:50:45 10° NNE 09:55:17 66° ESE 09:59:19 13° S
Cosmos 2278 Rocket 3.8 09:50:47 10° SSE 09:55:41 31° ESE 10:00:37 10° NE
Envisat 3.0 09:52:09 10° N 09:57:13 72° WNW 10:00:48 19° SSW
Cosmos 1271 Rocket 3.9 09:55:30 10° SSE 09:58:49 37° E 10:02:09 10° NNE
CZ-2C R/B 4.2 09:59:28 16° W 09:59:33 16° W 10:02:41 10° WNW
Cosmos 1048 Rocket 4.2 09:55:10 10° NNW 10:00:11 48° WSW 10:05:16 10° S
UNK 3.8 09:58:30 13° S 10:02:27 57° W 10:06:59 10° NNW
Cosmos 1862 4.4 10:00:08 10° SSE 10:03:42 40° E 10:07:16 10° NNE
Mugunghwa Rocket 4.2 09:59:07 18° WSW 10:03:51 51° S 10:09:56 10° ESE
Cosmos 1603 4.5 09:59:31 10° NW 10:04:28 31° WSW 10:08:02 16° SSW
Cosmos 1758 Rocket 3.7 10:00:54 11° S 10:05:05 74° E 10:09:29 10° N
CZ-2D R/B 4.3 10:05:36 10° NW 10:06:08 10° WNW 10:06:41 10° WNW
Cosmos 2058 Rocket 3.2 10:02:23 10° NNW 10:06:41 53° W 10:10:19 14° SSW
Cosmos 1153 Rocket 4.5 10:04:55 10° S 10:11:03 89° ESE 10:17:13 10° N
YAOGAN 6 2.1 10:11:10 10° N 10:14:20 77° WNW 10:16:44 16° SSW
Cosmos 1812 3.9 10:15:49 10° NW 10:18:37 22° W 10:19:50 18° WSW
Cosmos 1607 4.0 10:13:10 10° NW 10:19:21 55° WSW 10:25:22 10° S
USA 276 3.1 10:17:32 16° SSW 10:19:26 34° SE 10:22:06 10° ENE
NOSS 2-2 (E) 3.8 10:21:14 17° WSW 10:23:25 33° WNW 10:26:20 10° N
ALOS 4.1 10:21:12 10° NNW 10:23:50 15° WNW 10:26:09 11° W
Iridium 4 Rocket 4.1 10:20:20 10° NNW 10:24:30 33° W 10:28:49 11° SSW
Cosmos 1626 Rocket 4.2 10:22:56 15° SW 10:26:14 37° W 10:30:20 10° NNW
Cosmos 1515 3.6 10:24:02 10° N 10:27:30 76° E 10:30:57 10° S
Cosmos 1378 3.9 10:24:40 10° N 10:27:50 47° E 10:30:59 10° SSE
PAYLOAD A 4.2 10:24:00 10° N 10:29:13 64° WNW 10:34:32 10° SSW
Aurora 2 Rocket 4.2 10:27:02 13° SW 10:31:07 33° SSE 10:37:27 10° ESE
Cosmos 1782 2.8 10:34:31 10° NNW 10:38:16 56° W 10:42:00 10° S
DMSP B5D2-2 4.1 10:33:58 10° S 10:39:13 75° WSW 10:44:30 10° NNW
ATLAS 5 CENTAUR R/B 2.9 10:37:44 10° W 10:39:55 16° NW 10:42:10 10° N
Cosmos 2346 Rocket 4.4 10:34:00 10° N 10:40:03 81° W 10:46:06 10° S
SL-16 R/B 4.0 10:45:13 10° SW 10:49:03 17° W 10:52:54 10° NW
Cosmos 1833 Rocket 3.2 10:43:26 10° NNW 10:49:03 66° ENE 10:54:39 10° SSE
Cosmos 1666 2.4 10:47:16 10° SSW 10:50:40 66° W 10:54:04 10° N
Meteor 1-26 Rocket 4.3 10:46:59 10° N 10:52:23 82° E 10:57:45 10° S
Thor Agena Rocket 4.0 10:47:40 10° N 10:52:42 45° WNW 10:57:39 10° SW
